STARLINK-33889, 63829

Orbit data source: Space-Track

STARLINK-33889, 63829 is a payload satellite owned by SpaceX/Seattle (US) in LEO that was launched on Sun, 04 May 2025 UTC via an FALCON 9 launch vehicle from the Air Force Eastern Test Range (AFETR). Payload-class satellites include a variety of spacecraft equipped with specific instruments for various scientific and technological missions. These include communications satellites like Starlink; space stations such as the ISS; scientific satellites like the Hubble; Earth observation satellites from companies like Planet Labs, Umbra, and HawkEye 360; GPS; miniature CubeSats for education and research; and military/defense satellites.

Loading next visibility...
Identifier
63829, 2025-092AB
Orbit
LEO
Last TLE update
13 hours ago
Origin
Manufacturer
SpaceX/Seattle
Mission
Operational Commercial Communications
Bus & Motor
STARLINK V2MO, Unknown motor
Mass
575 kg wet, ~530 kg dry
Launch date (UTC)
2025-05-04 (2 months ago)
Launch vehicle
FALCON 9
Launch site
Air Force Eastern Test Range (AFETR)
Object type
Payload
Rocket body
Debris
Shape & HBR
Box + 1 Pan, 29 m
Radar Cross Section
41.120 m², Large (>1 m²)

Expand to show TLE details & history

TLE from 13 hours ago
0 STARLINK-33889
1 63829U 25092AB  25189.77740064  .00022285  00000-0  81670-3 0  9990
2 63829  43.0018 109.8405 0001338 272.8103  87.2595 15.27588081 11251
Epoch: 2025-07-08T18:39Z
TLE epoch observation values (Epoch: 2025-07-08T18:39:27.415Z)
Latitude
-0.00005°
Longitude
-96.99129°
Altitude
482.757 km
Speed
7.626 km/s
True Right ascension
07h 19m 21s
True Declination
0° 00' 00"
Sunlit
Object was in daylight at epoch
Visualization orbit readout
Latitude
37.88387°
Longitude
23.86928°
Altitude
485.841 km
Speed
7.627 km/s
Apparent Right ascension
11h 55m 08s
Apparent Declination
1° 13' 25"
Sunlit
Object is in daylight
Visualization observer readout
Local Sidereal Time
19:52:36
Azimuth
290.801° WNW
Elevation
-21.244°
Doppler factor
1
Orbital elements
Apogee altitude
485.888 km
Perigee altitude
484.051 km
Semi-major axis
6,863.107 km
Eccentricity
0.00013
Inclination
43.0018°
RAAN
109.8405°
Arg. of periapsis
272.8103°
True anomaly
Unknown
Mean anomaly
87.2595°
Eccentric anomaly
Unknown
Mean motion
3.81735 °/min
Orbital period
94.31 mins
BSTAR
0.0008167
Loading maneuver chart data...
Loading SW <> Apogee altitude chart data...
Loading historical data...
Loading historical data...
Loading historical data...
Loading historical data...
Loading historical data...
Loading historical data...
Loading historical data...

STARLINK-33889 Visibility forecast

Observer location: undefined°, undefined°

Span
Click to sort rows by Start time (UTC) header in descending order
Start Az.
Max El. time (UTC)
Max El. Az.
Max El.
End time (UTC)
End Az.
5 mins2025-07-09 21:32:03.795Z204.658° SW2025-07-09 21:35:03.795Z135.693° SSE26.098°2025-07-09 21:37:03.795Z94.479° ESE
6 mins2025-07-09 23:11:03.795Z260.912° W2025-07-09 23:13:03.795Z292.111° WNW42.7°2025-07-09 23:17:03.795Z70.894° E
6 mins2025-07-10 00:50:03.795Z290.446° WNW2025-07-10 00:53:03.795Z30.699° NE36.696°2025-07-10 00:56:03.795Z79.488° E
6 mins2025-07-10 02:29:03.795Z286.505° WNW2025-07-10 02:32:03.795Z133.377° SE43.382°2025-07-10 02:35:03.795Z113.202° SE
|